Monte Cimone, Italy

8:57 PM CEST on October 19, 2017 (GMT +0200)
Monte Cimone

Weather History for LIVC - August, 2013

Change the Weather History Date:

Monday, August 26, 2013

  Actual Average Record
Temperature  
Mean Temperature 49 °F -  
Max Temperature 52 °F 51 °F 69 °F (2010)
Min Temperature 46 °F 42 °F 44 °F (2002)
Degree Days  
Heating Degree Days 16    
Moisture  
Dew Point 44 °F    
Average Humidity 82    
Maximum Humidity 93    
Minimum Humidity 70    
Precipitation  
Precipitation 0.00 in 0.10 in - ()
Sea Level Pressure  
Sea Level Pressure 30.02 in    
Wind  
Wind Speed 21 mph ()    
Max Wind Speed 36 mph    
Max Gust Speed -    
Visibility 5.3 miles    
Events Fog    
Averages and records for this station are not official NWS values.
T = Trace of Precipitation, MM = Missing Value Source: Averaged Metar Reports

Daily Weather History Graph

Daily Weather History Graph

Search for Another Location

Airport or City:

Trip Planner

Search our weather history database for the weather conditions in past years. The results will help you decide how hot, cold, wet, or windy it might be!

Date:

Astronomy

Aug. 26, 2013 Rise Set
Actual Time 6:33 AM CEST 8:03 PM CEST
Civil Twilight 6:02 AM CEST 8:34 PM CEST
Nautical Twilight 5:26 AM CEST 9:10 PM CEST
Astronomical Twilight 4:46 AM CEST 9:49 PM CEST
Moon 10:48 PM CEST (8/26) 12:33 PM CEST (8/26)
Length of Visible Light 14h 31m
Length of Day
13h 30m
Waning Gibbous, 69% of the Moon is Illuminated
Aug 26
Waning Gibbous
Aug 28
Last Quarter
Sep 5
New
Sep 12
First Quarter
Sep 19
Full

Hourly Weather History & Observations

Time (CEST) Temp. Windchill Dew Point Humidity Pressure Visibility Wind Dir Wind Speed Gust Speed Precip Events Conditions
12:55 AM 48.2 °F - 39.2 °F 71% 29.98 in 6.2 mi SW 29.9 mph - N/A   Scattered Clouds
1:55 AM 48.2 °F - 41.0 °F 76% 29.98 in 6.2 mi WSW 17.3 mph - N/A   Mostly Cloudy
2:00 AM 48 °F - 41 °F 70%  in 19 mi WSW 17.3 mph - -   Mostly Cloudy
2:55 AM 46.4 °F 36.9 °F 42.8 °F 87% 29.95 in 0.0 mi SW 32.2 mph - N/A Fog Fog
3:55 AM 46.4 °F 36.5 °F 42.8 °F 87% 29.95 in 0.0 mi SW 34.5 mph - N/A Fog Fog
4:55 AM 46.4 °F 38.3 °F 42.8 °F 87% 29.98 in 0.0 mi SW 23.0 mph - N/A Fog Fog
5:55 AM 46.4 °F 38.7 °F 42.8 °F 87% 29.98 in 0.0 mi SW 20.7 mph - N/A Fog Fog
6:55 AM 46.4 °F 38.7 °F 44.6 °F 93% 29.98 in 0.0 mi SW 20.7 mph - N/A Fog Fog
7:55 AM 46.4 °F 38.1 °F 44.6 °F 93% 29.98 in 0.0 mi SW 24.2 mph - N/A Fog Fog
8:55 AM 48.2 °F - 46.4 °F 93% 29.98 in 0.0 mi WSW 24.2 mph - N/A Fog Fog
9:55 AM 48.2 °F - 44.6 °F 87% 29.98 in 0.0 mi SW 23.0 mph - N/A Fog Fog
10:55 AM 48.2 °F - 44.6 °F 87% 30.01 in 0.1 mi SW 24.2 mph - N/A Fog Fog
11:55 AM 50.0 °F - 44.6 °F 82% 30.04 in 6.2 mi SW 17.3 mph - N/A   Mostly Cloudy
12:55 PM 50.0 °F - 44.6 °F 82% 30.04 in 6.2 mi SW 19.6 mph - N/A   Scattered Clouds
1:55 PM 51.8 °F - 44.6 °F 76% 30.04 in 6.2 mi WSW 20.7 mph - N/A   Scattered Clouds
2:00 PM 51 °F - 44 °F 70%  in 19 mi WSW 20.7 mph - -   Partly Cloudy
2:55 PM 53.6 °F - 44.6 °F 72% 30.06 in 6.2 mi WSW 17.3 mph - N/A   Scattered Clouds
3:55 PM 53.6 °F - 44.6 °F 72% 30.06 in 6.2 mi SW 20.7 mph - N/A   Partly Cloudy
4:55 PM 51.8 °F - 42.8 °F 71% 30.06 in 6.2 mi SW 25.3 mph - N/A   Partly Cloudy
5:55 PM 50.0 °F - 42.8 °F 76% 30.06 in 6.2 mi Calm Calm - N/A   Scattered Clouds
6:55 PM 50.0 °F - 42.8 °F 76% 30.06 in 6.2 mi SW 26.5 mph - N/A   Scattered Clouds
7:55 PM 50.0 °F - 44.6 °F 82% 30.06 in 6.2 mi SW 23.0 mph - N/A   Scattered Clouds
8:00 PM 50 °F - 44 °F 73%  in 19 mi SW 23.0 mph - -   Partly Cloudy
8:55 PM 48.2 °F - 44.6 °F 87% 30.06 in 6.2 mi SW 27.6 mph - N/A   Scattered Clouds
9:55 PM 48.2 °F - 44.6 °F 87% 30.04 in 6.2 mi SW 32.2 mph - N/A   Scattered Clouds
10:55 PM 48.2 °F - 44.6 °F 87% 30.06 in 6.2 mi SW 35.7 mph - N/A   Scattered Clouds
11:55 PM 48.2 °F - 46.4 °F 93% 30.04 in 0.0 mi SW 35.7 mph - N/A Fog Fog